Location: *
(35.2348°S, 91.3916°E)
Time: 16:06:35
(UTC+00:00)

CZ-3 R/B - Pass Details

Date: 23 October 2019
Orbit: 340 x 10279 km, 28.4° (Epoch: 21 November)

Event Time Altitude Azimuth Distance (km) Brightness Sun altitude
Exits shadow 21:28:20 12° 323° (NW) 8,906 5.8 -18.4°
Maximum altitude 21:47:52 30° 10° (N) 3,839 4.4 -14.9°
Drops below altitude 10° 21:55:45 10° 67° (ENE) 3,389 4.9 -13.4°
Sets 21:58:03 0° 80° (E) 3,819 5.6 -13.0°
